Regional Weather Roundup
Issued by NWS

Home | Current Version | Previous Version | Graphics & Text | Print | Product List | Glossary On
Versions: 1 2 3 4 5 6 7 8 9 10 11 12 13 14 15 16 17 18 19 20 21 22 23 24 25 26 27 28 29 30 31 32 33 34 35 36 37 38 39 40 41 42 43 44 45 46 47 48 49 50
000
ASUS43 KIND 230659
RWRIN

WEATHER ROUNDUP FOR INDIANA
NATIONAL WEATHER SERVICE INDIANAPOLIS IN
300 AM EDT SAT AUG 23 2014

NOTE: "FAIR" INDICATES FEW OR NO CLOUDS BELOW 12,000 FEET WITH NO
SIGNIFICANT WEATHER AND/OR OBSTRUCTIONS TO VISIBILITY.

* - STATION DOES NOT REPORT WEATHER SUCH AS PRECIPITATION OR FOG.

+ - STATION NOT QUALITY CONTROLLED BY THE NATIONAL WEATHER SERVICE.
    USE DATA WITH CAUTION...ESPECIALLY DEWPOINT AND RELATIVE
    HUMIDITY OBSERVATIONS.

INZ001>003-010>013-019-020-230800-
NORTHWEST INDIANA

CITY           SKY/WX    TMP DP  RH WIND       PRES   REMARKS
KNOX *+          N/A     68  66  93 CALM      29.97F VSB 1/4
MONTICELLO +   FOG       71  71 100 CALM      29.96F VSB 1/2
VALPARAISO     FOG       69  68  96 NE3       29.98F VSB 3/4

$$

LMZ046-743>745-230800-
SOUTHERN LAKE MICHIGAN

STATION/POSITION TIME  TEMP WIND        PRES
                       AIR  DIR/SP/G
                 (UTC) (F)  (DEG/KT/KT) (MB)
MICHIGAN CITY    0600   75  120/  3/  4   N/A

$$

INZ004-005-014>016-021>024-230800-
NORTH CENTRAL INDIANA

CITY           SKY/WX    TMP DP  RH WIND       PRES   REMARKS
GOSHEN         CLEAR     75  73  93 SW5       29.98F FOG
PERU/GRISSOM   CLEAR     72  72 100 CALM      29.98F
SOUTH BEND     CLEAR     74  72  93 CALM      29.98F FOG
WARSAW +       PTCLDY    72  72 100 SE3       29.99S FOG

$$

INZ006>009-017-018-025>027-230800-
NORTHEAST INDIANA

CITY           SKY/WX    TMP DP  RH WIND       PRES   REMARKS
ANGOLA *+      CLOUDY    72  70  94 CALM      30.00S
FORT WAYNE     LGT RAIN  72  70  93 CALM      29.99F

$$

INZ028-029-035-036-043>045-051>053-230800-
WEST CENTRAL INDIANA

CITY           SKY/WX    TMP DP  RH WIND       PRES   REMARKS
GREENCASTLE +  FOG       70  70 100 CALM      29.99F VSB 3/4
LAFAYETTE      FOG       69  69 100 CALM      29.96F VSB 1/4
TERRE HAUTE    PTCLDY    72  71  97 SE3       29.97F

$$

INZ030>032-037>040-046>048-054>057-064-065-230800-
CENTRAL INDIANA

CITY           SKY/WX    TMP DP  RH WIND       PRES   REMARKS
FRANKFORT +    CLEAR    N/A N/A N/A CALM      30.00F FOG
INDIANAPOLIS   CLEAR     73  70  90 N3        29.98F
-EAGLE CREEK   CLEAR     72  70  93 CALM      29.98F
KOKOMO *+        N/A     70  66  88 CALM      29.98F VSB 3/4
MT COMFORT *+    N/A     68 N/A N/A CALM      30.00S VSB 1
SHELBYVILLE    CLEAR     71  68  90 NE3       29.98F

$$

INZ033-034-041-042-049-050-058-059-230800-
EAST CENTRAL INDIANA

CITY           SKY/WX    TMP DP  RH WIND       PRES   REMARKS
MUNCIE         CLEAR     70  68  93 CALM      30.00S

$$

INZ060-061-067>069-081>083-085>088-230800-
SOUTHWEST INDIANA

CITY           SKY/WX    TMP DP  RH WIND       PRES   REMARKS
EVANSVILLE     CLOUDY    77  72  84 VRB3      29.98F

$$

INZ062-063-066-070>080-084-089>092-230800-
SOUTH CENTRAL AND SOUTHEAST INDIANA

CITY           SKY/WX    TMP DP  RH WIND       PRES   REMARKS
BLOOMINGTON    FOG       72  70  93 CALM      29.99F VSB 1/4

$$




USA.gov is the U.S. government's official web portal to all federal, state and local government web resources and services.